Вернуться в каталог

FENGYUN 1C DEB

АктивенSSO
NORAD 29813·DEBRIS·🇨🇳 China

Запущен May 10, 1999 с Taiyuan Satellite Launch Center

Loading…

Ближайшие Пролёты (ближайшие 24 часа)

TLE

СвежийSource: Space-Track

Эпоха: Sep 14, 2026, 20:02 UTC

1 29813U 99025DF  26257.83527527 -.00000057  00000-0 -85622-5 0  9991
2 29813  98.7126 273.9639 0012872 159.3132  15.8789 14.09522087 11492

Отслеживайте FENGYUN 1C DEB в реальном времени с AllMySat

Download on the App Store